Regional Weather Roundup
Issued by NWS Portland, ME

Home | Current Version | Previous Version | Text Only | Print | Product List | Glossary On
Versions: 1 2 3 4 5 6 7 8 9 10 11 12 13 14 15 16 17 18 19 20 21 22 23 24 25 26 27 28 29 30 31 32 33 34 35 36 37 38 39 40 41 42 43 44 45 46 47 48 49 50
000
ASUS41 KGYX 222110
RWRGYX
WEATHER ROUNDUP FOR MAINE AND NEW HAMPSHIRE
NATIONAL WEATHER SERVICE GRAY ME
500 PM EDT WED OCT 22 2014

MEZ002-005-006-010-012-015-018-020-021-024-026-027-029-222200-
MAINE

CITY           SKY/WX    TMP DP  RH WIND       PRES   REMARKS
PORTLAND       LGT RAIN  49  46  90 NE15G30   30.04S FOG
SANFORD        CLOUDY    46  43  87 N18G31    30.02S
BAR HARBOR     CLOUDY    48  48 100 NE21      30.12F
WISCASSET      CLOUDY    48  46  93 N10G23    30.07S
ROCKLAND       CLOUDY    48  46  93 NE20G31   30.07R
FRYEBURG       LGT RAIN  47  43  86 N12G23    30.11R
LEWISTONAUBURN CLOUDY    46  43  87 NE21G31   30.09R
AUGUSTA        LGT RAIN  46  43  89 NE20G30   30.12S FOG
WATERVILLE     CLOUDY    46  39  76 NE21G28   30.12S
BANGOR         CLOUDY    47  44  90 NE17G25   30.18S
GREENVILLE       N/A     45  39  79 N9        30.21S
MILLINOCKET    CLOUDY    48  41  76 NE12      30.28R
HOULTON        LGT RAIN  47  37  68 NE13G23   30.30S
PRESQUE ISLE   CLOUDY    50  34  53 E12       30.33S
FRENCHVILLE    MOCLDY    46  32  58 E8        30.35R
CARIBOU        CLOUDY    49  35  58 NE8       30.33S
$$

NHZ002-005-008-009-011-012-014-222200-
NEW HAMPSHIRE

CITY           SKY/WX    TMP DP  RH WIND       PRES   REMARKS
PORTSMOUTH     LGT RAIN  49  46  90 NE23G33   29.97S FOG
ROCHESTER      LGT RAIN  48  45  89 N15G29    30.00S FOG
NASHUA         LGT RAIN  50  48  93 N14G23    29.97F FOG
MANCHESTER     LGT RAIN  50  45  83 N15G26    29.96F
CONCORD        LGT RAIN  48  46  93 N14G20    30.01F FOG
LACONIA        CLOUDY    48  43  81 NE17G26   30.03S
PLYMOUTH       CLOUDY    54  47  77 NE10G17   30.05R
BERLIN         CLOUDY    47  43  86 N5        30.15R
WHITEFIELD     CLOUDY    50  42  74 E8        30.11R
JAFFREY        LGT RAIN  47  45  93 VRB7      29.96F FOG
LEBANON        CLOUDY    53  43  68 N10       30.05S
MT WASHINGTON  FRZ RAIN  30  30 100 E71G79      N/A  VSB 0   WCI   9
$$

VTZ005-007-008-222200-
VERMONT

CITY           SKY/WX    TMP DP  RH WIND       PRES   REMARKS
ST JOHNSBURY     N/A     54  39  57 MISG      30.10S
MONTPELIER     CLOUDY    48  44  86 N7        30.14F
BURLINGTON     MOCLDY    53  43  68 N10       30.15S
$$

MAZ007-012-024-CTZ003-RIZ002-NYZ038-NYZ072-222200-
SOUTHERN NEW ENGLAND AND NY

CITY           SKY/WX    TMP DP  RH WIND       PRES   REMARKS
BOSTON         DRIZZLE   51  49  92 NE29G40   29.89F FOG
WORCESTER      LGT RAIN  47  45  93 NE17G31   29.90F FOG
NANTUCKET      LGT RAIN  56  55  97 NE18      29.74F
PROVIDENCE     LGT RAIN  52  49  89 N25G40    29.84F FOG
HARTFORD       DRIZZLE   53  47  79 N17G25    29.88F
ALBANY         LGT RAIN  51  45  79 N14G24    30.01F
NEW YORK CITY  RAIN      54  49  83 N14       29.83S
$$

ANZ081-ANZ082-ANZ150-NHZ014-MEZ023>029-222200-
COASTAL MARINE OBSERVATIONS

STATION/POSITION TIME  TEMP    WIND        PRES    WAVE
                       AIR SEA DIR/SP/G            HT/PER
                 (UTC) (F)     (DEG/KT/KT) (MB)    (FT/S)
MOUNT DESERT ROC 2100   51                 1015.9R
MATINICUS ROCK   2100           50/ 45/ 51 1015.4F
PORTLAND WX BUOY 2050   50 54   40/ 27/ 31 1015.7F   9/ 8
WELLS            2000   48 50   20/ 19/ 24 1015.2F
ISLE OF SHOALS   2100   49      40/ 38/ 43 1012.6F
JEFFREYS LEDGE   2021      56                N/A    17/10
CASHES LEDGE BUO 2050   54 55   50/ 33/ 43 1012.3R  22/10
$$

.............KEY..............
   WCI - WIND CHILL
   TC  - TEMPERATURE IN CELSIUS
   VSB - VISIBILITY IN MILES
   HX  - HEAT INDEX
   FAIR- INDICATES FEW OR NO CLOUDS BELOW 12,000 FT, WITH NO
         SIGNIFICANT WEATHER AND/OR OBSTRUCTIONS TO VISIBILITY.





USA.gov is the U.S. government's official web portal to all federal, state and local government web resources and services.